Volver al catálogo

STARLINK-34315

ActivoComunicacionesVLEO
NORAD 64266·PAYLOAD·🇺🇸 United States

Lanzado Jun 4, 2025 desde Vandenberg Space Force Base

Loading…

Próximos Pases (próximas 24 horas)

TLE

ActualizadoSource: CelesTrak SupGP

Época: Sep 14, 2026, 22:30 UTC

1 64266C 25120L   26257.93798611 -.00067222  00000+0 -19899-2 0  2575
2 64266  53.1590 315.6331 0001284  83.5346 125.2195 15.34363743    10

Sigue STARLINK-34315 en tiempo real con AllMySat

Download on the App Store